Regional Weather Roundup
Issued by NWS Wakefield, VA

Home | Current Version | Previous Version | Graphics & Text | Print | Product List | Glossary On
Versions: 1 2 3 4 5 6 7 8 9 10 11 12 13 14 15 16 17 18 19 20 21 22 23 24 25 26 27 28 29 30 31 32 33 34 35 36 37 38 39 40 41 42 43 44 45 46 47 48 49 50
000
ASUS41 KAKQ 210910
RWRAKQ

REGIONAL WEATHER ROUNDUP
NATIONAL WEATHER SERVICE WAKEFIELD VA
500 AM EDT THU AUG 21 2014

Note: "fair" indicates few or no clouds below 12,000 feet with no
significant weather and/or obstructions to visibility. * = Denotes
station may not report precipitation (e.g., rain,snow,etc.),
thunder or fog.

VAZ042-051-052>054-056-211000-
NORTHERN VIRGINIA

CITY           SKY/WX    TMP DP  RH WIND       PRES   REMARKS
WASH NATIONAL  MOCLDY    72  66  81 CALM      30.00F
DULLES         CLEAR     63  62  97 CALM      30.01R
FORT BELVOIR   CLEAR     64  63  94 CALM      30.01R FOG
QUANTICO       PTCLDY    68  66  93 NW8       30.01R
FREDERICKSBRG* CLEAR     66  66 100 CALM      29.99S
STAFFORD*      FOG       64  64 100 CALM      30.04R VSB 1/2
WARRENTON      CLOUDY    68  68 100 CALM      30.00S FOG
CULPEPER*      FOG      N/A N/A N/A CALM      30.02R VSB 3/4
MANASSAS*      CLOUDY    66  64  94 CALM      30.01R
LEESBURG*      PTCLDY    63  63 100 CALM      30.02S FOG
WINCHESTER     FOG       68  68 100 CALM      30.00S VSB 1/2
$$

VAZ048-049-060>072-079>083-211000-
CENTRAL AND SOUTH CENTRAL VIRGINIA...AND NORTH CENTRAL NORTH CAROLINA

CITY           SKY/WX    TMP DP  RH WIND       PRES   REMARKS
RICHMOND       PTCLDY    71  68  90 CALM      30.00R
CHESTERFIELD*  MOSUNNY  N/A N/A N/A NW3       30.02R
HANOVER        PTCLDY    67  67 100 CALM      30.02S FOG
TAPPAHANNOCK*  PTCLDY    70  67  92 CALM      30.01S
CHARLOTTSVILLE FOG       65  64  97 CALM      30.02R VSB 1/2
ORANGE*        FOG       68  64  88 CALM      30.03S VSB 1/4
LOUISA*        FOG       66  64  94 CALM      30.01R VSB 1/2
FARMVILLE*     FOG       68  66  94 CALM      30.00S VSB 1/4
SOUTH HILL*    MOCLDY    72  72 100 CALM      30.06R FOG
ROANOKE RAPIDS   N/A     70  70 100 CALM      30.00R FOG
RALEIGH        MOCLDY    71  69  93 W3        30.01R FOG
$$

VAZ088>098-211000-
SOUTHEAST VIRGINIA

CITY           SKY/WX    TMP DP  RH WIND       PRES   REMARKS
NORFOLK        MOCLDY    74  71  91 S5        29.99R
VIRGINIA BEACH MOCLDY    74  72  93 S5        29.98S
NORFOLK NAVAL  MOCLDY    76  72  87 S3        30.00R
WEST POINT*    CLOUDY    75  71  87 CALM      30.02R
NEWPORT NEWS   CLOUDY    75  70  84 CALM      29.99R
LANGLEY AFB    PTCLDY    74  74 100 S2        29.98S
FORT EUSTIS    PTCLDY    73 N/A N/A S3        29.98R
WILLIAMSBURG*  MOCLDY    75  73  94 CALM      30.00R
FRANKLIN*      CLOUDY    73  72  94 SE3       29.99S
WAKEFIELD      CLOUDY    74  72  93 CALM      29.99S FOG
$$

VAZ020-022-025-037-045-211000-
WESTERN AND SOUTHWEST VIRGINIA

CITY           SKY/WX    TMP DP  RH WIND       PRES   REMARKS
STAUNTON*      FOG       64  63  95 CALM      30.07R VSB<1/4
HOT SPRINGS VA CLOUDY   N/A N/A N/A W12       30.19S HAZE
LYNCHBURG      FOG       68  68 100 CALM      30.04S VSB 3/4
DANVILLE       PTCLDY    69  67  93 CALM      30.03R
MARTINSVILLE     N/A     67  67 100 CALM      30.08R FOG
ROANOKE        PTCLDY    70  66  87 W6        30.07S
BLACKSBURG     PTCLDY    66  66 100 CALM      30.15R
DUBLIN*        PTCLDY    65  65  98 SW7       30.15R
MARION*        CLOUDY    67  64  90 W14       30.19R
HILLSVILLE*    MOCLDY    65  62  91 NW13      30.16R
RICHLANDS*     MOSUNNY   66  64  93 CALM      30.18R
WISE*            N/A     63  63 100 CALM      30.17F FOG
ABINGDON*      CLOUDY    68  67  98 CALM      30.16S FOG
$$

MDZ021>025-VAZ099-100-211000-
SOUTHERN MARYLAND AND THE DELMARVA PENINSULA

CITY           SKY/WX    TMP DP  RH WIND       PRES   REMARKS
PATUXENT RIVER CLOUDY    73  71  93 S3        29.99S
BAY BRIDGE APT   N/A     72  70  94 S6        30.00S
LEONARDTOWN    CLOUDY    72  68  88 CALM      30.01S
DOVER          CLEAR     65  65  97 SE1       30.00R
GEORGETOWN     PTCLDY    66  63  90 CALM      30.02S
EASTON         CLOUDY    70  70 100 CALM      30.04S
CAMBRIDGE      PTCLDY    72  68  88 E3        30.00S
SALISBURY      CLOUDY    70  65  84 CALM      30.01S
OCEAN CITY     MOCLDY    69  68  96 CALM      30.01S
WALLOPS ISLAND CLOUDY    73  70  90 NE5       30.01S
ACCOMACK*      MOCLDY    70  68  94 CALM      29.99S
$$

NCZ012>017-030>032-211000-
EASTERN NORTH CAROLINA

CITY           SKY/WX    TMP DP  RH WIND       PRES   REMARKS
ELIZABETH CITY PTCLDY    72  70  93 CALM      29.99S FOG
AHOSKIE*       PTCLDY    72  71  97 CALM      30.01R
EDENTON*       PTCLDY    76  74  96 S3        29.99S FOG
CURRITUCK*     PTCLDY    73  69  86 CALM      30.00R
KILL DEVIL HLS PTCLDY    75  73  93 CALM      29.99R
MANTEO         MOCLDY    73  72  94 CALM      30.00S
CAPE HATTERAS  PTCLDY    77  74  90 SW3       30.00S
GOLDSBORO      PTCLDY    74  73  98 CALM      29.97R
WASHINGTON     PTCLDY    74  73  97 CALM      30.00R
GREENVILLE     PTCLDY    73  73 100 CALM      30.00S FOG
NEW BERN       PTCLDY    77  73  88 CALM      30.00R FOG
WILMINGTON     CLOUDY    77  75  93 CALM      29.99S
$$

VAZ048-211000-
ELSEWHERE

CITY           SKY/WX    TMP DP  RH WIND       PRES   REMARKS
HARRISBURG PA  PTCLDY    69  66  90 SE6       29.98F
BALTIMORE      PTCLDY    66  63  90 CALM      29.99F
ANNAPOLIS      PTCLDY    73  69  87 S3        29.99S
ANDREWS AFB    PTCLDY    67  67  99 S3        30.00F
WILMINGTON DE  MOCLDY    69  66  90 CALM      30.02S
PHILADELPHIA   PTCLDY    69  64  84 SE6       30.01F
WILDWOOD NJ*   CLEAR     64  59  82 CALM      30.03R
ATLANTIC CITY  PTCLDY    65  63  93 CALM      30.02S
HENDERSON NC   MOCLDY    69  67  94 CALM      30.02R
GREENSBORO     MOCLDY    74  70  87 CALM      30.04R
ROCKY MOUNT    PTCLDY    73  71  93 CALM      29.99R FOG
FAYETTEVILLE   CLEAR     76  74  93 W7        29.99R
CHARLOTTE      MOCLDY    70  67  90 CALM      30.05R
$$

VAZ100-211000-
MARINE

STATION/POSITION TIME  TEMP    WIND        PRES    WAVE   SWELL
                       AIR SEA DIR/SP/G            HT/PER HT/PER
                 (UTC) (F)     (DEG/KT/KT) (MB)    (FT/S) (FT/S)
44066 TX TWR #4  0900   70 72   10/  8/ 10 1016.1F   3/ 6   2/ 6
CAPE MAY NJ      0900   69 79  140/  2/  3 1015.8R
LEWES DE         0900   70 74  190/  2/  3 1016.0R
15NM E FENWICK I 0900   74 75              1015.9F   2/ 6
OCEAN-CITY-INLET 0900   72 76  110/  3/  4 1015.8R
WACHAPREAGUE VA  0900   76 80  180/  6/  9 1015.6R
THOMAS POINT MD  0900   74 78  160/ 10/ 11 1016.1F
GOOSES REEF MD   0900   75     170/ 10/ 12 1016.1S
COVE POINT MD    0900   75     170/  9/ 10 1015.6S
SOLOMONS ISLAND  0900      80                N/A
BISHOPS HEAD MD  0900   75 78  150/  6/  7 1015.3F
PINEY POINT MD   0900          210/  5/  7   N/A
POTOMAC MD       0900   77     190/  4/  6 1015.1S
CAMBRIDGE MD     0900   72 78  120/  2/  3 1015.6S
LEWISETTA VA     0900   75 80  160/  3/  3 1015.4F
RAPPAHANNOCK LGT 0900          140/  6/  7 1016.1R
STINGRAY PT      0900   77     200/  8/ 12 1016.2R
YORK RVR RNG VA  0900   77     190/ 11/ 12 1014.9R
YORKTOWN VA      0900   75 80  170/  4/  5 1015.2S
JAMESTOWN VA     0900   73     190/  4/  6   N/A
DOMINION TERM VA 0900   76     170/  5/  6 1015.5S
KIPTOPEKE VA     0900      81  160/  5/  7   N/A
CHES BAY BRIDGE  0900   76 79  150/  7/ 10 1014.9S
CAPE HENRY VA    0900   75     170/  6/  7 1014.1S
CHESAPEAKE LGHT  0800   76     160/ 10/ 11 1016.1F
WILLOUBY STN VA  0900   75                 1014.2F
S CRANEY ISL VA  0900          150/  5/  6 1015.1S
CAPE HENRY BUOY  0900      78                N/A     3/ 6
1ST LANDING BUOY 0900   77     170/  8/ 10 1015.1R
CAPE CHARLES BUO 0900      78                N/A     2/ 6   2/ 6
OFFSHORE WE BUOY 0900      77                N/A     2/ 6   2/ 6
64NM E OF VA BCH 0900   76 78  150/  4/  4 1015.4F   2/ 7   2/ 7
DUCK PIER NC     0900   78 78  150/ 11/ 12 1014.7S
44056 DUCK FRF   0900                        N/A     2/ 7
OREGON INLET NC  0900   76 81  130/  3/  5 1015.7R
HATTERAS NC      0900   80 81  200/  2/  4 1016.1S
DIAMOND SHLS NC  0900   79     190/  4/  6 1015.7R   3/ 9   3/ 9
CAPE LOOKOUT NC  0800   80     210/  4/  5 1015.6F
$$



USA.gov is the U.S. government's official web portal to all federal, state and local government web resources and services.